User: anonymous   Login
Location: ?
(35.4214°N, 139.3011°E)
Time: 06:28:13
(UTC+00:00)
Language:

Cosmos 1703 - Orbit

View from above orbital plane
View from above orbital plane
View from above satellite
View from above satellite

Ground track
Ground track

The orbit data is extracted from the following two-line orbital elements,

1 16262U 85108A   20273.38072665 +.00000270 +00000-0 +14137-4 0  9999
2 16262 082.4799 150.1702 0012657 105.3784 254.8845 15.11366530899860
Epoch (UTC): 29 September 2020 09:08:14
Eccentricity: 0.0012657
inclination: 82.4799°
perigee height: 523 km
apogee height: 541 km
right ascension of ascending node: 150.1702°
argument of perigee: 105.3784°
revolutions per day: 15.11366530
mean anomaly at epoch: 254.8845°
orbit number at epoch: 89986

The dashed part of the orbit path shows where the satellite is in the earth's shadow,  

DLR